Date,TemperatureHighF,TemperatureAvgF,TemperatureLowF,DewpointHighF,DewpointAvgF,DewpointLowF,HumidityHigh,HumidityAvg,HumidityLow,PressureMaxIn,PressureMinIn,WindSpeedMaxMPH,WindSpeedAvgMPH,GustSpeedMaxMPH,PrecipitationSumIn
2013-2-1,63,49,36,44,39,32,93,70,37,30.38,30.29,15,2,15,0.00
2013-2-2,66,47,32,48,35,27,90,66,46,30.37,30.19,14,2,14,0.00
2013-2-3,68,54,43,52,45,39,93,75,36,30.25,30.12,8,2,15,0.00
2013-2-4,66,52,40,53,46,37,93,79,50,30.11,29.98,3,1,8,0.02
2013-2-5,66,60,52,63,57,49,93,89,86,30.02,29.94,15,2,15,0.33
2013-2-6,70,60,53,62,56,49,94,86,72,30.14,30.00,14,2,14,0.01
2013-2-7,79,64,52,64,58,50,93,81,56,30.00,29.77,25,4,25,1.61
2013-2-8,74,59,48,64,54,44,94,85,65,30.14,29.93,14,2,14,0.00
2013-2-9,66,56,45,57,51,43,93,83,71,30.24,30.11,14,4,14,0.00
2013-2-10,72,65,54,68,62,51,93,90,84,30.12,29.97,13,7,29,0.01
2013-2-11,70,61,59,66,59,57,93,91,85,30.09,29.99,16,4,19,0.40
2013-2-12,70,64,58,67,61,56,93,91,86,30.03,29.76,22,6,22,0.03
2013-2-13,68,53,45,64,50,43,93,90,81,30.05,29.76,18,3,20,0.19
2013-2-14,60,46,37,48,42,35,94,86,62,30.16,30.02,13,2,13,0.00
2013-2-15,67,49,33,48,41,31,94,76,37,30.16,30.03,14,2,14,0.01
2013-2-16,56,49,32,44,31,20,86,54,27,30.28,30.07,31,6,31,0.00
2013-2-17,57,40,26,34,29,22,93,70,30,30.39,30.27,11,1,11,0.00
2013-2-18,65,52,33,56,44,31,93,75,52,30.29,30.02,26,5,26,0.00
2013-2-19,68,59,40,62,50,32,92,75,29,30.19,29.97,0,0,0,0.53
2013-2-20,58,48,37,40,33,26,93,62,32,30.27,30.08,0,0,0,0.00
2013-2-21,68,57,37,65,51,35,93,80,62,30.09,29.87,0,0,0,0.00
2013-2-22,69,68,66,66,64,61,92,88,85,29.95,29.84,0,0,0,0.40
2013-2-23,67,58,56,63,54,52,90,87,85,29.94,29.76,0,0,0,0.69
2013-2-24,70,60,50,61,54,46,92,83,68,29.98,29.80,0,0,0,0.40
2013-2-25,67,63,59,64,59,55,92,87,84,29.83,29.51,0,0,0,2.04
2013-2-26,66,56,52,62,48,42,92,74,59,29.92,29.52,0,0,0,0.00
2013-2-27,63,56,44,47,44,40,92,68,47,30.02,29.90,0,0,0,0.00
2013-2-28,61,55,43,53,38,33,92,54,36,30.07,29.97,0,0,0,0.00